| time (UTC) | temp C | wind direction | speed KPH | gust KPH | rain 1hr cm | rain 24hr cm | rain mn cm | humidity % | barometer mb |
| 20260507040404 | 12 | 74 | 3.2 | 4.8 | 0.00 | 0.00 | 0.00 | 44 | 1006.9 |
| 20260507035903 | 12 | 116 | 1.6 | 9.7 | 0.00 | 0.00 | 0.00 | 43 | 1006.9 |
| 20260507035402 | 12 | 124 | 3.2 | 9.7 | 0.00 | 0.00 | 0.00 | 43 | 1006.7 |
| 20260507034903 | 12 | 91 | 4.8 | 12.9 | 0.00 | 0.00 | 0.00 | 43 | 1006.5 |
| 20260507033903 | 12 | 55 | 4.8 | 12.9 | 0.00 | 0.00 | 0.00 | 43 | 1006.5 |
| 20260507033404 | 13 | 2 | 4.8 | 16.1 | 0.00 | 0.00 | 0.00 | 43 | 1006.4 |
| 20260507032903 | 13 | 0 | 8.0 | 12.9 | 0.00 | 0.00 | 0.00 | 42 | 1006.4 |
| 20260507032403 | 13 | 43 | 4.8 | 9.7 | 0.00 | 0.00 | 0.00 | 42 | 1006.2 |
| 20260507031903 | 13 | 0 | 6.4 | 14.5 | 0.00 | 0.00 | 0.00 | 41 | 1006.1 |
| 20260507030904 | 14 | 0 | 9.7 | 19.3 | 0.00 | 0.00 | 0.00 | 39 | 1005.9 |
| 20260507030404 | 15 | 60 | 8.0 | 16.1 | 0.00 | 0.00 | 0.00 | 39 | 1005.8 |
| 20260507025903 | 15 | 49 | 9.7 | 19.3 | 0.00 | 0.00 | 0.00 | 39 | 1005.7 |
| 20260507025402 | 15 | 56 | 8.0 | 14.5 | 0.00 | 0.00 | 0.00 | 38 | 1005.8 |
| 20260507024403 | 16 | 57 | 8.0 | 16.1 | 0.00 | 0.00 | 0.00 | 37 | 1005.7 |
| 20260507023403 | 16 | 51 | 9.7 | 20.9 | 0.00 | 0.00 | 0.00 | 36 | 1005.6 |
| 20260507022903 | 16 | 0 | 6.4 | 12.9 | 0.00 | 0.00 | 0.00 | 37 | 1005.6 |
| 20260507022403 | 17 | 34 | 11.3 | 16.1 | 0.00 | 0.00 | 0.00 | 37 | 1005.6 |
| 20260507021903 | 17 | 20 | 11.3 | 16.1 | 0.00 | 0.00 | 0.00 | 36 | 1005.4 |
| 20260507021404 | 17 | 22 | 11.3 | 19.3 | 0.00 | 0.00 | 0.00 | 36 | 1005.4 |
| 20260507020903 | 17 | 29 | 11.3 | 16.1 | 0.00 | 0.00 | 0.00 | 36 | 1005.3 |
| 20260507015903 | 17 | 22 | 8.0 | 14.5 | 0.00 | 0.00 | 0.00 | 35 | 1005.3 |
| 20260507015403 | 18 | 11 | 8.0 | 14.5 | 0.00 | 0.00 | 0.00 | 34 | 1005.3 |
| 20260507014903 | 18 | 352 | 11.3 | 19.3 | 0.00 | 0.00 | 0.00 | 34 | 1005.3 |
| 20260507014404 | 18 | 350 | 4.8 | 9.7 | 0.00 | 0.00 | 0.00 | 33 | 1005.2 |
| 20260507012904 | 18 | 14 | 11.3 | 19.3 | 0.00 | 0.00 | 0.00 | 32 | 1005.0 |
| 20260507011904 | 18 | 317 | 11.3 | 19.3 | 0.00 | 0.00 | 0.00 | 31 | 1005.0 |
| 20260507010404 | 18 | 300 | 4.8 | 12.9 | 0.00 | 0.00 | 0.00 | 32 | 1005.0 |
| 20260507005904 | 18 | 300 | 4.8 | 12.9 | 0.00 | 0.00 | 0.00 | 32 | 1005.1 |
| 20260507005403 | 18 | 328 | 3.2 | 19.3 | 0.00 | 0.00 | 0.00 | 30 | 1005.1 |
| 20260507004904 | 18 | 24 | 11.3 | 19.3 | 0.00 | 0.00 | 0.00 | 31 | 1005.0 |
| 20260507004404 | 18 | 37 | 9.7 | 14.5 | 0.00 | 0.00 | 0.00 | 31 | 1005.0 |
| 20260507003903 | 18 | 14 | 6.4 | 11.3 | 0.00 | 0.00 | 0.00 | 31 | 1005.2 |
| 20260507003404 | 18 | 44 | 3.2 | 4.8 | 0.00 | 0.00 | 0.00 | 32 | 1005.1 |
| 20260507002904 | 19 | 47 | 3.2 | 4.8 | 0.00 | 0.00 | 0.00 | 30 | 1004.9 |
| 20260507002404 | 19 | 34 | 4.8 | 9.7 | 0.00 | 0.00 | 0.00 | 31 | 1004.8 |
| 20260507001404 | 19 | 55 | 3.2 | 9.7 | 0.00 | 0.00 | 0.00 | 30 | 1004.6 |
| 20260507000904 | 19 | 46 | 1.6 | 8.0 | 0.00 | 0.00 | 0.00 | 30 | 1004.6 |
| 20260507000405 | 19 | 50 | 4.8 | 12.9 | 0.00 | 0.00 | 0.00 | 32 | 1004.6 |
| 20260506235403 | 19 | 46 | 4.8 | 9.7 | 0.00 | 0.00 | 0.00 | 30 | 1004.7 |
| 20260506234904 | 19 | 14 | 8.0 | 12.9 | 0.00 | 0.00 | 0.00 | 30 | 1004.7 |
| 20260506234404 | 19 | 7 | 6.4 | 14.5 | 0.00 | 0.00 | 0.00 | 30 | 1004.7 |
| 20260506233904 | 19 | 50 | 6.4 | 9.7 | 0.00 | 0.00 | 0.00 | 30 | 1004.6 |
| 20260506233404 | 19 | 44 | 8.0 | 12.9 | 0.00 | 0.00 | 0.00 | 30 | 1004.6 |
| 20260506232904 | 19 | 57 | 1.6 | 16.1 | 0.00 | 0.00 | 0.00 | 31 | 1004.6 |
| 20260506232403 | 19 | 71 | 8.0 | 12.9 | 0.00 | 0.00 | 0.00 | 29 | 1004.6 |
| 20260506231904 | 19 | 65 | 4.8 | 11.3 | 0.00 | 0.00 | 0.00 | 30 | 1004.6 |
| 20260506231404 | 19 | 65 | 6.4 | 14.5 | 0.00 | 0.00 | 0.00 | 30 | 1004.7 |
| 20260506230904 | 19 | 52 | 4.8 | 16.1 | 0.00 | 0.00 | 0.00 | 31 | 1004.8 |
| 20260506230404 | 19 | 41 | 11.3 | 19.3 | 0.00 | 0.00 | 0.00 | 29 | 1004.9 |
| 20260506225904 | 19 | 37 | 9.7 | 19.3 | 0.00 | 0.00 | 0.00 | 29 | 1005.0 |
| 20260506225404 | 20 | 38 | 9.7 | 19.3 | 0.00 | 0.00 | 0.00 | 29 | 1004.9 |
| 20260506224904 | 20 | 49 | 9.7 | 19.3 | 0.00 | 0.00 | 0.00 | 29 | 1004.9 |
| 20260506224404 | 20 | 54 | 8.0 | 20.9 | 0.00 | 0.00 | 0.00 | 29 | 1005.0 |
| 20260506223904 | 21 | 47 | 9.7 | 20.9 | 0.00 | 0.00 | 0.00 | 27 | 1005.0 |
| 20260506223404 | 21 | 51 | 8.0 | 20.9 | 0.00 | 0.00 | 0.00 | 28 | 1004.9 |
| 20260506222904 | 21 | 68 | 6.4 | 14.5 | 0.00 | 0.00 | 0.00 | 29 | 1004.9 |
| 20260506222404 | 21 | 98 | 6.4 | 19.3 | 0.00 | 0.00 | 0.00 | 27 | 1005.0 |
| 20260506221904 | 20 | 51 | 8.0 | 19.3 | 0.00 | 0.00 | 0.00 | 30 | 1005.1 |
| 20260506221404 | 20 | 99 | 4.8 | 19.3 | 0.00 | 0.00 | 0.00 | 29 | 1005.2 |
| 20260506220901 | 20 | 44 | 16.1 | 29.0 | 0.00 | 0.00 | 0.00 | 28 | 1005.4 |
| 20260506220400 | 21 | 20 | 17.7 | 27.4 | 0.00 | 0.00 | 0.00 | 26 | 1005.3 |
| 20260506215900 | 22 | 306 | 16.1 | 35.4 | 0.00 | 0.00 | 0.00 | 24 | 1004.8 |
| 20260506215400 | 22 | 312 | 4.8 | 19.3 | 0.00 | 0.00 | 0.00 | 25 | 1005.5 |
| 20260506214900 | 22 | 257 | 8.0 | 29.0 | 0.00 | 0.00 | 0.00 | 26 | 1005.5 |
| 20260506214400 | 22 | 51 | 6.4 | 14.5 | 0.00 | 0.00 | 0.00 | 29 | 1005.6 |
| 20260506213900 | 22 | 144 | 8.0 | 14.5 | 0.00 | 0.00 | 0.00 | 27 | 1005.6 |
| 20260506213400 | 22 | 162 | 4.8 | 29.0 | 0.00 | 0.00 | 0.00 | 24 | 1005.7 |
| 20260506211900 | 21 | 278 | 8.0 | 29.0 | 0.00 | 0.00 | 0.00 | 26 | 1005.9 |
| 20260506211400 | 21 | 256 | 11.3 | 19.3 | 0.00 | 0.00 | 0.00 | 26 | 1006.1 |
| 20260506210901 | 21 | 349 | 4.8 | 12.9 | 0.00 | 0.00 | 0.00 | 30 | 1006.2 |
| 20260506210401 | 20 | 349 | 8.0 | 14.5 | 0.00 | 0.00 | 0.00 | 27 | 1006.3 |
| 20260506205900 | 20 | 336 | 6.4 | 9.7 | 0.00 | 0.00 | 0.00 | 30 | 1006.4 |
| 20260506205400 | 20 | 228 | 3.2 | 4.8 | 0.00 | 0.00 | 0.00 | 28 | 1006.4 |
| 20260506204400 | 20 | 68 | 8.0 | 12.9 | 0.00 | 0.00 | 0.00 | 29 | 1006.3 |
| 20260506203901 | 20 | 68 | 4.8 | 16.1 | 0.00 | 0.00 | 0.00 | 28 | 1006.5 |
| 20260506203400 | 20 | 125 | 4.8 | 19.3 | 0.00 | 0.00 | 0.00 | 29 | 1006.6 |
| 20260506202400 | 20 | 122 | 4.8 | 11.3 | 0.00 | 0.00 | 0.00 | 29 | 1006.8 |
| 20260506201400 | 20 | 28 | 3.2 | 8.0 | 0.00 | 0.00 | 0.00 | 27 | 1007.0 |
| 20260506200901 | 20 | 93 | 3.2 | 9.7 | 0.00 | 0.00 | 0.00 | 29 | 1007.1 |
| 20260506200402 | 20 | 130 | 6.4 | 12.9 | 0.00 | 0.00 | 0.00 | 28 | 1007.2 |
| 20260506195900 | 20 | 75 | 3.2 | 12.9 | 0.00 | 0.00 | 0.00 | 30 | 1007.3 |
| 20260506194900 | 20 | 90 | 8.0 | 14.5 | 0.00 | 0.00 | 0.00 | 29 | 1007.3 |
| 20260506193900 | 20 | 76 | 9.7 | 19.3 | 0.00 | 0.00 | 0.00 | 29 | 1007.4 |
| 20260506192900 | 20 | 51 | 6.4 | 11.3 | 0.00 | 0.00 | 0.00 | 31 | 1007.6 |
| 20260506191900 | 20 | 30 | 6.4 | 12.9 | 0.00 | 0.00 | 0.00 | 30 | 1007.7 |
| 20260506191400 | 20 | 55 | 4.8 | 11.3 | 0.00 | 0.00 | 0.00 | 29 | 1008.0 |
| 20260506190901 | 20 | 42 | 4.8 | 8.0 | 0.00 | 0.00 | 0.00 | 31 | 1008.0 |
| 20260506190401 | 19 | 324 | 4.8 | 9.7 | 0.00 | 0.00 | 0.00 | 31 | 1008.1 |
| 20260506185900 | 19 | 291 | 3.2 | 8.0 | 0.00 | 0.00 | 0.00 | 30 | 1008.4 |
| 20260506185400 | 19 | 174 | 6.4 | 19.3 | 0.00 | 0.00 | 0.00 | 29 | 1008.4 |
| 20260506184901 | 19 | 84 | 6.4 | 16.1 | 0.00 | 0.00 | 0.00 | 29 | 1008.4 |
| 20260506184401 | 18 | 189 | 4.8 | 9.7 | 0.00 | 0.00 | 0.00 | 32 | 1008.5 |
| 20260506183901 | 18 | 186 | 4.8 | 11.3 | 0.00 | 0.00 | 0.00 | 31 | 1008.6 |
| 20260506182400 | 18 | 122 | 8.0 | 14.5 | 0.00 | 0.00 | 0.00 | 31 | 1008.7 |
| 20260506181901 | 18 | 89 | 4.8 | 16.1 | 0.00 | 0.00 | 0.00 | 32 | 1008.7 |
| 20260506181401 | 18 | 145 | 6.4 | 20.9 | 0.00 | 0.00 | 0.00 | 31 | 1008.8 |
| 20260506180901 | 17 | 254 | 4.8 | 8.0 | 0.00 | 0.00 | 0.00 | 30 | 1008.9 |
| 20260506175900 | 17 | 97 | 4.8 | 20.9 | 0.00 | 0.00 | 0.00 | 31 | 1009.1 |
| 20260506175400 | 17 | 149 | 9.7 | 16.1 | 0.00 | 0.00 | 0.00 | 31 | 1009.2 |
| 20260506174901 | 17 | 120 | 6.4 | 12.9 | 0.00 | 0.00 | 0.00 | 31 | 1009.3 |
| 20260506174401 | 17 | 167 | 4.8 | 19.3 | 0.00 | 0.00 | 0.00 | 31 | 1009.5 |
| 20260506173901 | 17 | 147 | 1.6 | 4.8 | 0.00 | 0.00 | 0.00 | 32 | 1009.5 |
| 20260506172901 | 16 | 161 | 4.8 | 9.7 | 0.00 | 0.00 | 0.00 | 36 | 1009.8 |
| 20260506172400 | 16 | 105 | 3.2 | 8.0 | 0.00 | 0.00 | 0.00 | 36 | 1009.8 |
| 20260506171900 | 16 | 176 | 4.8 | 9.7 | 0.00 | 0.00 | 0.00 | 36 | 1010.0 |
| 20260506171400 | 16 | 113 | 4.8 | 12.9 | 0.00 | 0.00 | 0.00 | 36 | 1010.0 |
| 20260506170901 | 15 | 132 | 6.4 | 11.3 | 0.00 | 0.00 | 0.00 | 36 | 1010.2 |
| 20260506170401 | 15 | 180 | 4.8 | 9.7 | 0.00 | 0.00 | 0.00 | 38 | 1010.4 |
| 20260506165900 | 15 | 130 | 4.8 | 8.0 | 0.00 | 0.00 | 0.00 | 38 | 1010.5 |
| 20260506165401 | 14 | 131 | 3.2 | 9.7 | 0.00 | 0.00 | 0.00 | 39 | 1010.5 |
| 20260506164900 | 14 | 152 | 4.8 | 8.0 | 0.00 | 0.00 | 0.00 | 38 | 1010.6 |
| 20260506164400 | 13 | 117 | 6.4 | 11.3 | 0.00 | 0.00 | 0.00 | 40 | 1010.7 |
| 20260506163901 | 13 | 144 | 4.8 | 9.7 | 0.00 | 0.00 | 0.00 | 40 | 1010.8 |
| 20260506163401 | 13 | 0 | 4.8 | 9.7 | 0.00 | 0.00 | 0.00 | 40 | 1010.9 |
| 20260506162901 | 13 | 0 | 3.2 | 8.0 | 0.00 | 0.00 | 0.00 | 40 | 1011.0 |
| 20260506162401 | 12 | 52 | 4.8 | 9.7 | 0.00 | 0.00 | 0.00 | 42 | 1011.1 |
| 20260506161901 | 12 | 0 | 6.4 | 12.9 | 0.00 | 0.00 | 0.00 | 39 | 1011.2 |
| 20260506161401 | 12 | 147 | 4.8 | 8.0 | 0.00 | 0.00 | 0.00 | 41 | 1011.2 |
| 20260506160901 | 12 | 177 | 4.8 | 8.0 | 0.00 | 0.00 | 0.00 | 43 | 1011.3 |
| 20260506160401 | 11 | 167 | 4.8 | 11.3 | 0.00 | 0.00 | 0.00 | 41 | 1011.4 |
| 20260506155401 | 11 | 18 | 3.2 | 8.0 | 0.00 | 0.00 | 0.00 | 46 | 1011.6 |
| 20260506154901 | 10 | 0 | 6.4 | 9.7 | 0.00 | 0.00 | 0.00 | 46 | 1011.7 |
| 20260506154401 | 10 | 357 | 6.4 | 9.7 | 0.00 | 0.00 | 0.00 | 46 | 1011.7 |
| 20260506153902 | 9 | 357 | 3.2 | 4.8 | 0.00 | 0.00 | 0.00 | 49 | 1011.8 |
| 20260506153401 | 8 | 347 | 1.6 | 4.8 | 0.00 | 0.00 | 0.00 | 51 | 1011.8 |
| 20260506152901 | 8 | 0 | 3.2 | 8.0 | 0.00 | 0.00 | 0.00 | 50 | 1011.9 |
| 20260506152402 | 8 | 0 | 3.2 | 4.8 | 0.00 | 0.00 | 0.00 | 51 | 1012.0 |
| 20260506151902 | 7 | 338 | 3.2 | 4.8 | 0.00 | 0.00 | 0.00 | 52 | 1012.0 |
| 20260506151401 | 7 | 0 | 1.6 | 4.8 | 0.00 | 0.00 | 0.00 | 53 | 1012.1 |
| 20260506150901 | 6 | 0 | 1.6 | 4.8 | 0.00 | 0.00 | 0.00 | 54 | 1012.2 |
| 20260506150402 | 6 | 0 | 3.2 | 8.0 | 0.00 | 0.00 | 0.00 | 55 | 1012.3 |
| 20260506145402 | 6 | 0 | 3.2 | 4.8 | 0.00 | 0.00 | 0.00 | 55 | 1012.5 |
| 20260506144901 | 5 | 0 | 1.6 | 4.8 | 0.00 | 0.00 | 0.00 | 57 | 1012.5 |
| 20260506144401 | 5 | 0 | 3.2 | 4.8 | 0.00 | 0.00 | 0.00 | 57 | 1012.5 |
| 20260506143901 | 5 | 0 | 3.2 | 4.8 | 0.00 | 0.00 | 0.00 | 57 | 1012.6 |
| 20260506142901 | 5 | 0 | 3.2 | 4.8 | 0.00 | 0.00 | 0.00 | 59 | 1012.7 |
| 20260506142401 | 4 | 0 | 1.6 | 4.8 | 0.00 | 0.00 | 0.00 | 61 | 1012.7 |
| 20260506141901 | 3 | 0 | 3.2 | 4.8 | 0.00 | 0.00 | 0.00 | 62 | 1012.8 |
| 20260506141401 | 3 | 0 | 3.2 | 4.8 | 0.00 | 0.00 | 0.00 | 61 | 1012.8 |
| 20260506140402 | 2 | 0 | 4.8 | 4.8 | 0.00 | 0.00 | 0.00 | 63 | 1013.0 |
| 20260506135901 | 2 | 0 | 4.8 | 4.8 | 0.00 | 0.00 | 0.00 | 64 | 1013.0 |
| 20260506135401 | 2 | 293 | 1.6 | 4.8 | 0.00 | 0.00 | 0.00 | 67 | 1013.0 |
| 20260506134902 | 1 | 294 | 1.6 | 4.8 | 0.00 | 0.00 | 0.00 | 68 | 1013.0 |
| 20260506134401 | 1 | 263 | 3.2 | 4.8 | 0.00 | 0.00 | 0.00 | 68 | 1013.0 |
| 20260506133901 | 0 | 263 | 1.6 | 3.2 | 0.00 | 0.00 | 0.00 | 69 | 1013.0 |
| 20260506133401 | 0 | 0 | 3.2 | 4.8 | 0.00 | 0.00 | 0.00 | 70 | 1013.1 |
| 20260506131401 | 0 | 0 | 3.2 | 4.8 | 0.00 | 0.00 | 0.00 | 68 | 1013.2 |
| 20260506125901 | -1 | 206 | 1.6 | 3.2 | 0.00 | 0.00 | 0.00 | 70 | 1013.2 |
| 20260506124901 | -1 | 206 | 0.0 | 3.2 | 0.00 | 0.00 | 0.00 | 69 | 1013.1 |
| 20260506124402 | -1 | 206 | 1.6 | 3.2 | 0.00 | 0.00 | 0.00 | 68 | 1013.2 |
| 20260506123901 | 0 | 206 | 1.6 | 3.2 | 0.00 | 0.00 | 0.00 | 68 | 1013.3 |
| 20260506123401 | 0 | 206 | 1.6 | 3.2 | 0.00 | 0.00 | 0.00 | 68 | 1013.2 |
| 20260506122902 | 0 | 206 | 1.6 | 3.2 | 0.00 | 0.00 | 0.00 | 68 | 1013.2 |
| 20260506122401 | 0 | 206 | 1.6 | 3.2 | 0.00 | 0.00 | 0.00 | 67 | 1013.2 |
| 20260506121902 | 0 | 206 | 1.6 | 3.2 | 0.00 | 0.00 | 0.00 | 66 | 1013.3 |
| 20260506121402 | 0 | 206 | 1.6 | 4.8 | 0.00 | 0.00 | 0.00 | 66 | 1013.2 |
| 20260506120901 | 0 | 206 | 1.6 | 3.2 | 0.00 | 0.00 | 0.00 | 66 | 1013.3 |
| 20260506120402 | 0 | 206 | 1.6 | 3.2 | 0.00 | 0.00 | 0.00 | 65 | 1013.3 |
| 20260506115903 | 0 | 206 | 1.6 | 3.2 | 0.00 | 0.00 | 0.00 | 67 | 1013.4 |
| 20260506115401 | 0 | 206 | 1.6 | 4.8 | 0.00 | 0.00 | 0.00 | 68 | 1013.5 |
| 20260506114902 | 0 | 206 | 0.0 | 0.0 | 0.00 | 0.00 | 0.00 | 66 | 1013.6 |
| 20260506114401 | 0 | 206 | 0.0 | 0.0 | 0.00 | 0.00 | 0.00 | 66 | 1013.6 |
| 20260506113902 | 0 | 206 | 0.0 | 0.0 | 0.00 | 0.00 | 0.00 | 65 | 1013.7 |
| 20260506113402 | 0 | 206 | 0.0 | 0.0 | 0.00 | 0.00 | 0.00 | 65 | 1013.8 |
| 20260506112902 | 0 | 206 | 0.0 | 1.6 | 0.00 | 0.00 | 0.00 | 64 | 1013.9 |
| 20260506112402 | 0 | 206 | 1.6 | 3.2 | 0.00 | 0.00 | 0.00 | 64 | 1013.9 |
| 20260506111902 | 0 | 206 | 1.6 | 3.2 | 0.00 | 0.00 | 0.00 | 63 | 1014.0 |
| 20260506111402 | 0 | 206 | 1.6 | 3.2 | 0.00 | 0.00 | 0.00 | 63 | 1014.0 |
| 20260506110902 | 0 | 206 | 0.0 | 1.6 | 0.00 | 0.00 | 0.00 | 63 | 1014.1 |
| 20260506110401 | 0 | 206 | 1.6 | 4.8 | 0.00 | 0.00 | 0.00 | 63 | 1014.2 |
| 20260506105402 | 0 | 205 | 4.8 | 4.8 | 0.00 | 0.00 | 0.00 | 63 | 1014.1 |
| 20260506104902 | 0 | 204 | 3.2 | 4.8 | 0.00 | 0.00 | 0.00 | 63 | 1014.2 |
| 20260506104402 | -1 | 201 | 4.8 | 4.8 | 0.00 | 0.00 | 0.00 | 63 | 1014.3 |
| 20260506103902 | -1 | 184 | 3.2 | 4.8 | 0.00 | 0.00 | 0.00 | 62 | 1014.5 |
| 20260506103402 | -1 | 157 | 1.6 | 4.8 | 0.00 | 0.00 | 0.00 | 62 | 1014.5 |
| 20260506102902 | -1 | 157 | 1.6 | 3.2 | 0.00 | 0.00 | 0.00 | 62 | 1014.5 |
| 20260506101902 | 0 | 157 | 0.0 | 3.2 | 0.00 | 0.00 | 0.00 | 61 | 1014.7 |
| 20260506101402 | 0 | 157 | 1.6 | 3.2 | 0.00 | 0.00 | 0.00 | 61 | 1014.8 |
| 20260506100902 | 0 | 157 | 0.0 | 1.6 | 0.00 | 0.00 | 0.00 | 61 | 1014.8 |
| 20260506095902 | 0 | 132 | 1.6 | 4.8 | 0.00 | 0.00 | 0.00 | 60 | 1014.9 |
| 20260506095402 | 0 | 132 | 0.0 | 3.2 | 0.00 | 0.00 | 0.00 | 60 | 1015.1 |
| 20260506094902 | 0 | 132 | 1.6 | 4.8 | 0.00 | 0.00 | 0.00 | 60 | 1015.1 |
| 20260506093902 | 0 | 134 | 1.6 | 4.8 | 0.00 | 0.00 | 0.00 | 59 | 1015.3 |
| 20260506093402 | 0 | 112 | 3.2 | 4.8 | 0.00 | 0.00 | 0.00 | 59 | 1015.4 |
| 20260506092901 | 0 | 158 | 3.2 | 8.0 | 0.00 | 0.00 | 0.00 | 59 | 1015.5 |
| 20260506092402 | 0 | 140 | 1.6 | 4.8 | 0.00 | 0.00 | 0.00 | 59 | 1015.6 |
| 20260506091902 | 0 | 139 | 1.6 | 4.8 | 0.00 | 0.00 | 0.00 | 58 | 1015.6 |
| 20260506091402 | 0 | 150 | 3.2 | 8.0 | 0.00 | 0.00 | 0.00 | 58 | 1015.6 |
| 20260506090902 | 0 | 165 | 3.2 | 8.0 | 0.00 | 0.00 | 0.00 | 58 | 1015.7 |
| 20260506090402 | 0 | 140 | 3.2 | 8.0 | 0.00 | 0.00 | 0.00 | 58 | 1015.7 |
| 20260506085902 | 0 | 155 | 3.2 | 8.0 | 0.00 | 0.00 | 0.00 | 58 | 1015.7 |
| 20260506085403 | 0 | 137 | 3.2 | 8.0 | 0.00 | 0.00 | 0.00 | 57 | 1015.8 |
| 20260506084902 | 0 | 136 | 3.2 | 9.7 | 0.00 | 0.00 | 0.00 | 57 | 1015.9 |
| 20260506084402 | 0 | 146 | 3.2 | 11.3 | 0.00 | 0.00 | 0.00 | 57 | 1016.0 |
| 20260506083902 | 0 | 163 | 6.4 | 14.5 | 0.00 | 0.00 | 0.00 | 57 | 1016.0 |
| 20260506083402 | 0 | 154 | 8.0 | 12.9 | 0.00 | 0.00 | 0.00 | 57 | 1016.1 |
| 20260506082902 | 0 | 146 | 4.8 | 20.9 | 0.00 | 0.00 | 0.00 | 57 | 1016.2 |
| 20260506082403 | 0 | 149 | 4.8 | 11.3 | 0.00 | 0.00 | 0.00 | 57 | 1016.1 |
| 20260506081902 | 0 | 121 | 4.8 | 11.3 | 0.00 | 0.00 | 0.00 | 57 | 1016.3 |
| 20260506080402 | 1 | 125 | 3.2 | 19.3 | 0.00 | 0.00 | 0.00 | 55 | 1016.3 |
| 20260506073402 | 0 | 121 | 4.8 | 11.3 | 0.00 | 0.00 | 0.00 | 56 | 1016.6 |
| 20260506072903 | 0 | 149 | 8.0 | 22.5 | 0.00 | 0.00 | 0.00 | 56 | 1016.5 |
| 20260506072403 | 0 | 134 | 4.8 | 8.0 | 0.00 | 0.00 | 0.00 | 56 | 1016.7 |
| 20260506071902 | 0 | 121 | 3.2 | 9.7 | 0.00 | 0.00 | 0.00 | 56 | 1016.6 |
| 20260506071403 | 0 | 116 | 4.8 | 9.7 | 0.00 | 0.00 | 0.00 | 56 | 1016.8 |
| 20260506070402 | 1 | 154 | 3.2 | 8.0 | 0.00 | 0.00 | 0.00 | 55 | 1016.9 |
| 20260506062403 | 1 | 135 | 3.2 | 9.7 | 0.00 | 0.00 | 0.00 | 54 | 1017.5 |
| 20260506061902 | 1 | 123 | 4.8 | 11.3 | 0.00 | 0.00 | 0.00 | 54 | 1017.5 |
| 20260506061403 | 1 | 116 | 3.2 | 4.8 | 0.00 | 0.00 | 0.00 | 54 | 1017.6 |
| 20260506060903 | 1 | 119 | 3.2 | 11.3 | 0.00 | 0.00 | 0.00 | 54 | 1017.7 |
| 20260506060403 | 1 | 136 | 3.2 | 4.8 | 0.00 | 0.00 | 0.00 | 53 | 1017.7 |
| 20260506050903 | 2 | 118 | 3.2 | 4.8 | 0.00 | 0.00 | 0.00 | 50 | 1018.2 |
| 20260506050404 | 2 | 120 | 1.6 | 4.8 | 0.00 | 0.00 | 0.00 | 50 | 1018.2 |
| 20260506044902 | 2 | 124 | 3.2 | 8.0 | 0.00 | 0.00 | 0.00 | 49 | 1018.3 |
| 20260506044403 | 2 | 129 | 1.6 | 4.8 | 0.00 | 0.00 | 0.00 | 49 | 1018.2 |
| 20260506043902 | 3 | 126 | 3.2 | 4.8 | 0.00 | 0.00 | 0.00 | 49 | 1018.3 |
| 20260506043403 | 3 | 118 | 3.2 | 9.7 | 0.00 | 0.00 | 0.00 | 49 | 1018.3 |
| 20260506042904 | 3 | 124 | 3.2 | 4.8 | 0.00 | 0.00 | 0.00 | 49 | 1018.2 |
| 20260506042404 | 3 | 118 | 3.2 | 4.8 | 0.00 | 0.00 | 0.00 | 48 | 1018.3 |
| 20260506041904 | 3 | 132 | 1.6 | 4.8 | 0.00 | 0.00 | 0.00 | 48 | 1018.3 |
| 20260506041404 | 3 | 119 | 3.2 | 8.0 | 0.00 | 0.00 | 0.00 | 47 | 1018.3 |